User: anonymous   Login
Location: Unspecified
(0.0000°N, 0.0000°E)
Time: 08:39:39
(UTC+00:00)
Language:

COSMOS 2498 - Orbit

View from above orbital plane
View from above orbital plane
View from above satellite
View from above satellite

Ground track
Ground track

The orbit is defined by the following mean orbital elements,

1 39763U          26103.90488119 +.00000000 +00000-0 -24097-3 0 00009
2 39763  82.4471 149.1767 0020648 210.4707 149.5174 12.42978116    04
Epoch (UTC): 13 April 2026 21:43:01
Eccentricity: 0.0020648
inclination: 82.4471°
perigee height: 1478 km
apogee height: 1510 km
right ascension of ascending node: 149.1767°
argument of perigee: 210.4707°
revolutions per day: 12.42978116
mean anomaly at epoch: 149.5174°

The dashed part of the orbit path shows where the satellite is in the earth's shadow,  

DLR